Flag for Poland Weather past 2 weeks in Katowice, Poland

Now
43 °F

Scattered clouds.


Feels Like: 33 °F
Forecast: 33 / 38 °F
Wind: 26 mph from West

Location: Katowice Airport

Current Time: Apr 1, 2015 at 3:53:10 PM

Latest Report: Apr 1, 2015 at 3:30 PM


Visibility: N/A

Pressure: 29.62 "Hg

Humidity: 57%

Dew point: 28 °F

Location of KatowiceLocation

Historic Weather in Katowice — Graph

°F

Katowice temperature yesterday

Maximum temperature yesterday: 46 °F (at 4:30 PM)
Minimum temperature yesterday: 34 °F (at 11:00 AM)
Average temperature yesterday: 40 °F

Past Weeks' High & Low Weather Summary

 TemperatureHumidityPressure
High66 °F (Mar 25, 2:00 PM)100% (Mar 20, 2:30 AM)30.51 "Hg (Mar 20, 2:30 AM)
Low19 °F (Mar 23, 5:00 AM)25% (Mar 23, 1:30 PM)29.24 "Hg (Mar 30, 5:00 AM)
Average42 °F68%29.93 "Hg
* Reported Mar 17 2:00 PM — Apr 1 3:00 PM, Katowice, Weather by CustomWeather, © 2015

Note: Actual official high and low records may vary slightly from our data, if they occured in-between our weather recording intervals... More about our weather records

Advertising

Katowice weather history for previous 24 hours

 ConditionsComfort  
Time TempWeatherWind HumidityBarometerVisibility
3:00 PM
Wed, Apr 1
43 °FScattered clouds.30 mph57%29.62 "HgN/A
2:30 PM39 °FSnow flurries. Scattered clouds.32 mph70%29.62 "HgN/A
2:00 PM41 °FPartly sunny.29 mph66%29.62 "HgN/A
1:30 PM41 °FPartly sunny.24 mph61%29.62 "HgN/A
1:00 PM39 °FSprinkles. Broken clouds.28 mph70%29.62 "HgN/A
12:30 PM39 °FSprinkles. Broken clouds.26 mph75%29.59 "HgN/A
12:00 PM39 °FBroken clouds.30 mph75%29.59 "HgN/A
11:30 AM37 °FSnow flurries. Broken clouds.24 mph81%29.56 "Hg5 mi
11:00 AM37 °FSnow flurries. Broken clouds.26 mph81%29.56 "Hg5 mi
10:30 AM37 °FSnow flurries. Broken clouds.32 mph75%29.53 "HgN/A
10:00 AM39 °FSnow flurries. Partly sunny.29 mph65%29.53 "HgN/A
9:30 AM39 °FSnow flurries. Partly sunny.31 mph61%29.53 "HgN/A
9:00 AM39 °FPartly sunny.32 mph65%29.50 "HgN/A
8:30 AM39 °FPartly sunny.30 mph61%29.50 "HgN/A
8:00 AM39 °FScattered clouds.28 mph61%29.47 "HgN/A
7:30 AM39 °FSnow flurries. Partly sunny.23 mph61%29.47 "HgN/A
7:00 AM39 °FPassing clouds.25 mph61%29.47 "HgN/A
6:30 AM39 °FPassing clouds.22 mph61%29.47 "HgN/A
6:00 AM39 °FPassing clouds.22 mph65%29.45 "HgN/A
5:30 AM39 °FPassing clouds.29 mph56%29.45 "HgN/A
5:00 AM39 °FPassing clouds.29 mph61%29.45 "HgN/A
4:30 AM39 °FPassing clouds.33 mph100%29.45 "HgN/A
4:00 AM41 °FPassing clouds.28 mph61%29.45 "HgN/A
3:30 AM41 °FPassing clouds.24 mph57%29.42 "HgN/A
3:00 AM41 °FClear.16 mph57%29.42 "Hg10 mi
2:30 AM41 °FClear.20 mph57%29.42 "Hg10 mi
2:00 AM41 °FClear.20 mph53%29.42 "Hg10 mi
1:30 AM41 °FPassing clouds.29 mph53%29.42 "HgN/A
1:00 AM43 °FPassing clouds.35 mph53%29.42 "HgN/A
12:30 AM43 °FPassing clouds.29 mph57%29.42 "HgN/A
12:00 AM43 °FPassing clouds.25 mph57%29.42 "HgN/A
11:30 PM
Tue, Mar 31
45 °FPassing clouds.21 mph57%29.39 "HgN/A
11:00 PM45 °FPassing clouds.30 mph61%29.39 "HgN/A
10:30 PM43 °FPassing clouds.26 mph66%29.36 "HgN/A
10:00 PM45 °FPartly cloudy.24 mph66%29.36 "HgN/A
9:30 PM43 °FPassing clouds.28 mph71%29.36 "HgN/A
9:00 PM45 °FThundershowers. Passing clouds.28 mph66%29.33 "HgN/A
8:30 PM45 °FThunderstorms. Passing clouds.30 mph71%29.33 "HgN/A
8:00 PM45 °FScattered clouds.33 mph76%29.30 "HgN/A
7:30 PM46 °FSprinkles. Scattered clouds.18 mph76%29.30 "HgN/A
7:00 PM46 °FScattered clouds.13 mph76%29.24 "HgN/A
6:30 PM46 °FScattered clouds.15 mph76%29.24 "HgN/A
6:00 PM46 °FScattered clouds.16 mph82%29.24 "HgN/A
5:30 PM46 °FPartly sunny.16 mph76%29.24 "HgN/A
5:00 PM46 °FScattered clouds.20 mph82%29.24 "HgN/A
4:30 PM46 °FScattered clouds.15 mph82%29.24 "HgN/A
4:00 PM43 °FScattered clouds.16 mph93%29.24 "HgN/A
3:30 PM43 °FLight rain. Scattered clouds.15 mph87%29.27 "Hg5 mi
3:00 PM43 °FSprinkles. Broken clouds.18 mph87%29.27 "Hg4 mi
Weather by CustomWeather, © 2015

See weather overviewHow to use our weather pages